Flag for U.S.A. Weather past 2 weeks in Canton, Ohio, U.S.A.

Now
34 °F

Passing clouds.


Feels Like: 28 °F
Forecast: 35 / 50 °F
Wind: 7 mph from Northwest

Location: Akron-Canton Regional Airport

Current Time: Apr 27, 2015 at 5:46:30 AM

Latest Report: Apr 27, 2015 at 4:51 AM


Visibility: 10 mi

Pressure: 29.87 "Hg

Humidity: 82%

Dew point: 29 °F

Location of CantonLocation

Historic Weather in Canton — Graph

°F

Canton temperature yesterday

Maximum temperature yesterday: 59 °F (at 2:51 PM)
Minimum temperature yesterday: 36 °F (at 6:51 AM)
Average temperature yesterday: 47 °F

Past Weeks' High & Low Weather Summary

 TemperatureHumidityPressure
High80 °F (Apr 13, 3:51 PM)90% (Apr 17, 4:51 AM)30.34 "Hg (Apr 17, 4:51 AM)
Low29 °F (Apr 24, 3:51 AM)18% (Apr 15, 3:51 PM)29.41 "Hg (Apr 20, 11:51 AM)
Average52 °F54%29.96 "Hg
* Reported Apr 12 3:51 AM — Apr 27 3:51 AM, Canton, Weather by CustomWeather, © 2015

Note: Actual official high and low records may vary slightly from our data, if they occured in-between our weather recording intervals... More about our weather records

Advertising

Canton weather history for previous 24 hours

 ConditionsComfort  
Time TempWeatherWind HumidityBarometerVisibility
3:51 AM
Mon, Apr 27
35 °FPassing clouds.7 mph82%29.88 "Hg10 mi
2:51 AM35 °FClear.6 mph75%29.88 "Hg10 mi
1:51 AM36 °FClear.7 mph75%29.88 "Hg10 mi
12:51 AM36 °FClear.7 mph73%29.89 "Hg10 mi
11:51 PM
Sun, Apr 26
38 °FClear.6 mph70%29.89 "Hg10 mi
10:51 PM42 °FPassing clouds.6 mph60%29.88 "Hg10 mi
9:51 PM44 °FPassing clouds.9 mph55%29.88 "Hg10 mi
8:51 PM46 °FPassing clouds.8 mph51%29.88 "Hg10 mi
7:51 PM50 °FPassing clouds.14 mph44%29.86 "Hg10 mi
6:51 PM53 °FPassing clouds.16 mph38%29.85 "Hg10 mi
5:51 PM55 °FPassing clouds.14 mph35%29.84 "Hg10 mi
4:51 PM55 °FPassing clouds.16 mph34%29.84 "Hg10 mi
3:51 PM57 °FPassing clouds.15 mph37%29.83 "Hg10 mi
2:51 PM59 °FScattered clouds.16 mph35%29.82 "Hg10 mi
1:51 PM57 °FPassing clouds.13 mph34%29.82 "Hg10 mi
12:51 PM56 °FPassing clouds.10 mph36%29.82 "Hg10 mi
11:51 AM53 °FPassing clouds.7 mph37%29.83 "Hg10 mi
10:51 AM52 °FPassing clouds.10 mph37%29.83 "Hg10 mi
9:51 AM50 °FSunny.10 mph43%29.82 "Hg10 mi
8:51 AM45 °FSunny.15 mph49%29.82 "Hg10 mi
7:51 AM41 °FPassing clouds.13 mph58%29.81 "Hg10 mi
6:51 AM36 °FPassing clouds.10 mph67%29.78 "Hg10 mi
5:51 AM38 °FClear.13 mph63%29.75 "Hg10 mi
Weather by CustomWeather, © 2015

See weather overviewHow to use our weather pages